User: anonymous   Login
Location: Unspecified
(0.0000°N, 0.0000°E)
Time: 07:10:47
(UTC+00:00)
Language:

AIST 2D - Orbit

View from above orbital plane
View from above orbital plane
View from above satellite
View from above satellite

Ground track
Ground track

The orbit data is extracted from the following two-line orbital elements,

1 41465U 16026B   17177.93980530 +.00001368 +00000-0 +47705-4 0  9990
2 41465 097.2496 080.7003 0011598 178.0165 243.1521 15.31274627064959
Epoch (UTC): 26 June 2017 22:33:19
Eccentricity: 0.0011598
inclination: 97.2496°
perigee height: 464 km
apogee height: 480 km
right ascension of ascending node: 80.7003°
argument of perigee: 178.0165°
revolutions per day: 15.31274627
mean anomaly at epoch: 243.1521°
orbit number at epoch: 6495

The dashed part of the orbit path shows where the satellite is in the earth's shadow,  

DLR